{"data":{"norad_id":59402,"intl_designator":"2024-064E","name":"STARLINK-31543","alt_names":[],"object_type":"PAYLOAD","status":"ACTIVE","operator":null,"country":"US","launch_date":"2024-04-05","launch_site_code":"AFETR","launch_vehicle":null,"mission":null,"orbit_class":"UNKNOWN","rcs_meters":null,"size_class":null,"mass_kg":null,"dimensions":null,"purposes":["comms"],"wikipedia_slug":null,"has_3d_model":false,"image_url":null,"decayed_at":null,"tle_current":{"epoch":"2026-09-21T09:25:29.960832Z","epoch_age_seconds":87789,"freshness":"FRESH","line1":"1 59402U 24064E   26264.39270788  .00001314  00000+0  57260-4 0  9992","line2":"2 59402  43.0018  31.1474 0000611 228.6825 131.3974 15.27576355139152","mean_motion":15.27576355,"eccentricity":6.11e-5,"inclination_deg":43.0018,"raan_deg":31.1474,"arg_perigee_deg":228.6825,"mean_anomaly_deg":131.3974,"bstar":5.726e-5,"rev_number":13915,"period_min":94.26697364663,"perigee_km":482.6407913653,"apogee_km":483.47922963998,"semimajor_km":6861.1970105026,"source":"CELESTRAK","updated_at":"2026-09-22T09:00:48.913705Z"}}}